• In Lithuania
  • List of Countries
  • For 7 days
  • Water Temperature
  • Satellite Maps
  • Weather Map
  • Weather Widgets
  • user-avatar
    Login

    Hourly Weather Dinanagar

    Today, 19 June, Tuesday

    Time Temperature Precipitation Wind Pressure Humidity
    00:00 +34°C° 0.2 mm 2 mps 730 mmHg 40%
    01:00 +32°C° 0.2 mm 1 mps 730 mmHg 40%
    02:00 +32°C° 0.2 mm 1 mps 730 mmHg 41%
    03:00 +31°C° 0 mm 1 mps 730 mmHg 40%
    04:00 +31°C° 0 mm 2 mps 730 mmHg 40%
    05:00 +30°C° 0 mm 2 mps 730 mmHg 49%
    06:00 +32°C° 0 mm 1 mps 730 mmHg 44%
    07:00 +34°C° 0 mm 1 mps 730 mmHg 39%
    08:00 +35°C° 0 mm 1 mps 731 mmHg 34%
    09:00 +37°C° 0 mm 1 mps 730 mmHg 31%
    10:00 +39°C° 0 mm 2 mps 730 mmHg 29%
    11:00 +40°C° 0 mm 2 mps 730 mmHg 26%
    12:00 +41°C° 0 mm 2 mps 730 mmHg 24%
    13:00 +42°C° 0 mm 2 mps 730 mmHg 23%
    14:00 +43°C° 0 mm 2 mps 729 mmHg 21%
    15:00 +43°C° 0 mm 2 mps 729 mmHg 21%
    16:00 +43°C° 0 mm 2 mps 729 mmHg 20%
    17:00 +43°C° 0 mm 2 mps 729 mmHg 20%
    18:00 +41°C° 0 mm 2 mps 729 mmHg 21%
    19:00 +40°C° 0 mm 2 mps 729 mmHg 23%
    20:00 +39°C° 0 mm 2 mps 730 mmHg 24%
    21:00 +38°C° 0 mm 2 mps 730 mmHg 25%
    22:00 +37°C° 0 mm 2 mps 730 mmHg 26%
    23:00 +37°C° 0 mm 2 mps 730 mmHg 26%

    Tomorrow, 20 June, Wednesday

    Time Temperature Precipitation Wind Pressure Humidity
    00:00 +36°C° 0 mm 2 mps 730 mmHg 27%
    01:00 +35°C° 0 mm 2 mps 730 mmHg 27%
    02:00 +35°C° 0 mm 2 mps 730 mmHg 28%
    03:00 +34°C° 0 mm 2 mps 730 mmHg 28%
    04:00 +34°C° 0 mm 2 mps 730 mmHg 29%
    05:00 +34°C° 0 mm 2 mps 730 mmHg 29%
    06:00 +36°C° 0 mm 2 mps 730 mmHg 26%
    07:00 +38°C° 0 mm 2 mps 730 mmHg 24%
    08:00 +40°C° 0 mm 2 mps 730 mmHg 21%
    09:00 +41°C° 0 mm 2 mps 730 mmHg 19%
    10:00 +43°C° 0 mm 2 mps 730 mmHg 18%
    11:00 +45°C° 0 mm 2 mps 730 mmHg 16%
    12:00 +46°C° 0 mm 2 mps 730 mmHg 16%
    13:00 +46°C° 0 mm 3 mps 730 mmHg 15%
    14:00 +47°C° 0 mm 3 mps 730 mmHg 14%
    15:00 +47°C° 0 mm 3 mps 729 mmHg 14%
    16:00 +47°C° 0 mm 3 mps 729 mmHg 14%
    17:00 +47°C° 0 mm 3 mps 729 mmHg 14%
    18:00 +45°C° 0 mm 3 mps 729 mmHg 16%
    19:00 +42°C° 0 mm 2 mps 730 mmHg 18%
    20:00 +41°C° 0 mm 2 mps 730 mmHg 20%
    21:00 +40°C° 0.1 mm 2 mps 730 mmHg 21%
    22:00 +39°C° 0.1 mm 2 mps 730 mmHg 22%
    23:00 +38°C° 0.1 mm 3 mps 730 mmHg 23%

    Day after tomorrow, 21 June, Thursday

    Time Temperature Precipitation Wind Pressure Humidity
    00:00 +37°C° 0 mm 3 mps 730 mmHg 24%
    01:00 +37°C° 0 mm 3 mps 730 mmHg 24%
    02:00 +36°C° 0 mm 3 mps 730 mmHg 24%
    03:00 +36°C° 0 mm 2 mps 730 mmHg 24%
    04:00 +35°C° 0 mm 1 mps 730 mmHg 25%
    05:00 +34°C° 0 mm 1 mps 730 mmHg 25%
    06:00 +36°C° 0 mm 1 mps 730 mmHg 23%
    07:00 +39°C° 0 mm 1 mps 730 mmHg 20%
    08:00 +41°C° 0 mm 1 mps 730 mmHg 18%
    09:00 +42°C° 0 mm 1 mps 730 mmHg 17%
    10:00 +45°C° 0 mm 2 mps 730 mmHg 15%
    11:00 +47°C° 0 mm 2 mps 730 mmHg 14%
    12:00 +47°C° 0 mm 2 mps 730 mmHg 13%
    13:00 +48°C° 0 mm 3 mps 729 mmHg 12%
    14:00 +48°C° 0 mm 3 mps 729 mmHg 11%
    15:00 +48°C° 0 mm 3 mps 728 mmHg 11%
    16:00 +48°C° 0 mm 3 mps 728 mmHg 10%
    17:00 +48°C° 0 mm 3 mps 728 mmHg 10%
    18:00 +46°C° 0 mm 3 mps 728 mmHg 11%
    19:00 +44°C° 0 mm 3 mps 729 mmHg 13%
    20:00 +42°C° 0 mm 3 mps 729 mmHg 14%
    21:00 +40°C° 0 mm 2 mps 729 mmHg 15%
    22:00 +39°C° 0 mm 2 mps 730 mmHg 16%
    23:00 +38°C° 0 mm 2 mps 730 mmHg 17%

    22 June, Friday

    Time Temperature Precipitation Wind Pressure Humidity
    00:00 +38°C° 0 mm 2 mps 730 mmHg 18%
    01:00 +37°C° 0 mm 2 mps 729 mmHg 19%
    02:00 +37°C° 0 mm 2 mps 729 mmHg 19%
    03:00 +36°C° 0 mm 2 mps 729 mmHg 20%
    04:00 +36°C° 0 mm 2 mps 729 mmHg 20%
    05:00 +35°C° 0 mm 2 mps 729 mmHg 20%
    06:00 +37°C° 0 mm 2 mps 729 mmHg 18%
    07:00 +40°C° 0 mm 2 mps 729 mmHg 16%
    08:00 +42°C° 0 mm 1 mps 730 mmHg 14%
    09:00 +43°C° 0 mm 2 mps 730 mmHg 13%
    10:00 +46°C° 0 mm 2 mps 729 mmHg 12%
    11:00 +48°C° 0 mm 3 mps 729 mmHg 11%
    12:00 +48°C° 0 mm 3 mps 729 mmHg 11%
    13:00 +50°C° 0 mm 3 mps 729 mmHg 10%
    14:00 +50°C° 0 mm 4 mps 728 mmHg 10%
    15:00 +50°C° 0 mm 4 mps 728 mmHg 10%
    16:00 +50°C° 0 mm 4 mps 728 mmHg 10%
    17:00 +50°C° 0 mm 4 mps 728 mmHg 10%
    18:00 +48°C° 0 mm 4 mps 728 mmHg 12%
    19:00 +45°C° 0 mm 3 mps 729 mmHg 14%
    20:00 +43°C° 0 mm 3 mps 729 mmHg 16%
    21:00 +42°C° 0 mm 3 mps 729 mmHg 17%
    22:00 +40°C° 0 mm 2 mps 729 mmHg 18%
    23:00 +39°C° 0 mm 2 mps 729 mmHg 19%

    23 June, Saturday

    Time Temperature Precipitation Wind Pressure Humidity
    00:00 +39°C° 0 mm 2 mps 729 mmHg 20%
    01:00 +38°C° 0 mm 2 mps 729 mmHg 21%
    02:00 +37°C° 0 mm 2 mps 728 mmHg 22%
    03:00 +37°C° 0 mm 2 mps 728 mmHg 22%
    04:00 +37°C° 0 mm 2 mps 728 mmHg 22%
    05:00 +36°C° 0 mm 2 mps 728 mmHg 22%
    06:00 +38°C° 0 mm 2 mps 729 mmHg 19%
    07:00 +40°C° 0 mm 2 mps 729 mmHg 17%
    08:00 +42°C° 0 mm 2 mps 729 mmHg 15%
    09:00 +45°C° 0 mm 2 mps 729 mmHg 14%
    10:00 +46°C° 0 mm 3 mps 729 mmHg 12%
    11:00 +49°C° 0 mm 4 mps 729 mmHg 11%
    12:00 +49°C° 0 mm 4 mps 729 mmHg 11%
    13:00 +50°C° 0 mm 4 mps 728 mmHg 11%
    14:00 +52°C° 0 mm 5 mps 728 mmHg 10%
    15:00 +50°C° 0 mm 5 mps 728 mmHg 11%
    16:00 +50°C° 0 mm 5 mps 728 mmHg 11%
    17:00 +49°C° 0 mm 5 mps 727 mmHg 12%
    18:00 +48°C° 0 mm 4 mps 728 mmHg 13%
    19:00 +45°C° 0 mm 3 mps 728 mmHg 15%
    20:00 +43°C° 0 mm 3 mps 728 mmHg 16%
    21:00 +41°C° 0 mm 2 mps 728 mmHg 17%
    22:00 +40°C° 0 mm 2 mps 728 mmHg 18%
    23:00 +39°C° 0 mm 2 mps 729 mmHg 19%

    24 June, Sunday

    Time Temperature Precipitation Wind Pressure Humidity
    00:00 +38°C° 0 mm 2 mps 728 mmHg 20%
    01:00 +38°C° 0 mm 2 mps 728 mmHg 20%
    02:00 +37°C° 0 mm 2 mps 727 mmHg 21%
    03:00 +37°C° 0 mm 2 mps 727 mmHg 21%
    04:00 +36°C° 0 mm 2 mps 727 mmHg 22%
    05:00 +36°C° 0 mm 2 mps 727 mmHg 22%
    06:00 +37°C° 0 mm 1 mps 728 mmHg 20%
    07:00 +40°C° 0 mm 1 mps 728 mmHg 17%
    08:00 +42°C° 0 mm 1 mps 728 mmHg 15%
    09:00 +45°C° 0 mm 2 mps 728 mmHg 14%
    10:00 +46°C° 0 mm 2 mps 728 mmHg 13%
    11:00 +48°C° 0 mm 3 mps 727 mmHg 12%
    12:00 +49°C° 0 mm 4 mps 727 mmHg 11%
    13:00 +50°C° 0 mm 4 mps 726 mmHg 11%
    14:00 +51°C° 0 mm 4 mps 726 mmHg 10%
    15:00 +51°C° 0 mm 4 mps 726 mmHg 10%
    16:00 +50°C° 0 mm 4 mps 725 mmHg 10%
    17:00 +50°C° 0 mm 4 mps 725 mmHg 10%
    18:00 +48°C° 0 mm 4 mps 726 mmHg 12%
    19:00 +45°C° 0 mm 3 mps 726 mmHg 13%
    20:00 +42°C° 0 mm 2 mps 726 mmHg 15%
    21:00 +42°C° 0 mm 2 mps 726 mmHg 15%
    22:00 +41°C° 0 mm 2 mps 727 mmHg 16%
    23:00 +40°C° 0 mm 2 mps 727 mmHg 16%
    Show more